OneWeb SL0589

operational
NORAD ID: 54655 Int'l Des: 2022-166 Owner: ONEWEBN Country: UK Constellation: oneweb
LEOCIRCULARPOLARONEWEB_TYPE

Über OneWeb SL0589

Beschreibung wird geladen...

Live-Position

3D-Globus wird geladen...

Nächste Überflüge

Höhenverlauf

Altitude vs Time

uPlot chart will show altitude changes over time

Zweizeiliger Elementsatz

1 54655U 22166P 25298.99236446 .00000063 00000-0 12073-3 0 9996
2 54655 87.9166 290.7163 0001263 66.9531 293.1736 13.21827333140609
Epoch: 25. Okt. 2025 • Age: 10 hours

Aktueller Status

Höhe 1190.3 km
Geschwindigkeit 7.27 km/s
Subsatellitenpunkt 78.32°N, 75.64°W
Startdatum 8. Dez. 2022
Alter 2.8 years
Typ internet

Technische Details

Klassifizierung Payload
Masse 148.00 kg
Trockenmasse 140.00 kg
Gesamtmasse 148.00 kg
Länge 1.30 m
Durchmesser 1.00 m
Spannweite 5.00 m
Form Trapezoid+2 pan
Hersteller ONEWUS
Bus-Typ ARROW
Phasenstatus In Orbit
Besitzer/Staat ONEWEBN/UK

Große Konstellationen

Loading constellations...